Regional Weather Roundup
Issued by NWS

Home | Current Version | Previous Version | Text Only | Print | Product List | Glossary Off
Versions: 1 2 3 4 5 6 7 8 9 10 11 12 13 14 15 16 17 18 19 20 21 22 23 24 25 26 27 28 29 30 31 32 33 34 35 36 37 38 39 40 41 42 43 44 45 46 47 48 49 50

000
ASUS43 KOAX 310510
RWRNE

WEATHER ROUNDUP FOR NEBRASKA
NATIONAL WEATHER SERVICE OMAHA NE
1200 AM CDT FRI JUL 31 2015

NOTES: SATELLITE DATA IS BEING USED TO AUGMENT CLOUD COVER ABOVE
       12000 FEET.
       "FAIR" INDICATES FEW OR NO CLOUDS BELOW 12,000 FEET WITH NO
       SIGNIFICANT WEATHER AND/OR OBSTRUCTIONS TO VISIBILITY.

  * THESE STATIONS DO NOT REPORT WEATHER SUCH AS RAIN...SNOW OR FOG.

NEZ001>004-019>022-054>056-310600-
NEBRASKA PANHANDLE

CITY           SKY/WX    TMP DP  RH WIND       PRES   REMARKS
SCOTTSBLUFF    CLEAR     66  51  58 E7        30.26S
ALLIANCE       CLEAR     64  56  75 CALM      30.27S
CHADRON        CLEAR     66  51  58 N5        30.22S
KIMBALL        CLEAR     63  56  76 S5        30.31S
SIDNEY         CLEAR     61  57  87 CALM      30.30F
$$

NEZ057>060-069>072-079>082-310600-
SOUTHWEST NEBRASKA

CITY           SKY/WX    TMP DP  RH WIND       PRES   REMARKS
NORTH PLATTE   PTCLDY    67  61  81 CALM      30.21S
IMPERIAL       CLEAR     69  60  73 N8        30.24S
LEXINGTON      PTCLDY    72  66  82 SE5       30.19S
MCCOOK         MOCLDY    73  63  70 SW5       30.20S
OGALLALA       PTCLDY    68  60  74 S3        30.23F
$$

NEZ005>010-023>029-035>040-094-310600-
NORTH CENTRAL NEBRASKA

CITY           SKY/WX    TMP DP  RH WIND       PRES   REMARKS
VALENTINE      CLEAR     62  52  69 SW7       30.20S
AINSWORTH      CLEAR     68  54  59 CALM      30.21S
BROKEN BOW     CLEAR     68  64  87 CALM      30.19F
O`NEILL        CLEAR     71  66  84 NE6       30.17R
ORD            CLEAR     72  65  78 CALM      30.15F
THEDFORD       CLEAR     65  60  84 SE3       30.24R
$$

NEZ041-046>049-061>064-073>077-083>087-310600-
SOUTH CENTRAL NEBRASKA

CITY           SKY/WX    TMP DP  RH WIND       PRES   REMARKS
GRAND ISLAND   CLEAR     71  66  84 S7        30.17F
AURORA         PTCLDY    72  65  77 S3        30.17F
HASTINGS       PTCLDY    75  67  76 S5        30.17F
HEBRON         MOCLDY    72  67  82 S6        30.16F
HOLDREGE       MOCLDY    71  64  79 S5        30.18F
KEARNEY *      PTCLDY    72  64  78 S3        30.18F
YORK           PTCLDY    66  64  94 SW5       30.16F
$$

NEZ011>018-030>034-042>045-310600-
NORTHEAST NEBRASKA

CITY           SKY/WX    TMP DP  RH WIND       PRES   REMARKS
NORFOLK        MOCLDY    73  67  81 E5        30.14S
ALBION         CLEAR     74  65  72 SW8       30.15S
BLAIR          CLEAR     71  62  73 S7        30.14S
COLUMBUS *     CLEAR     75  63  64 SW6       30.13F
FREMONT        CLEAR     77  60  54 SW5       30.13F
TEKAMAH        PTCLDY    70  69  97 SW5       30.12S
WAYNE          PTCLDY    69  67  92 CALM      30.15S
$$

NEZ050>053-065>068-078-088>093-310600-
SOUTHEAST NEBRASKA

CITY           SKY/WX    TMP DP  RH WIND       PRES   REMARKS
LINCOLN        CLEAR     73  61  65 CALM      30.15F
OMAHA EPPLEY   PTCLDY    78  65  63 S3        30.12F
BEATRICE       PTCLDY    73  63  71 CALM      30.15F
FALLS CITY     CLEAR     72  64  76 S7        30.15S
NEBRASKA CITY  CLEAR     70  60  70 SW6       30.15F
PLATTSMOUTH    CLEAR     73  63  70 S9        30.15S
$$

NEZ044-045-051>053-067-310600-
OMAHA AREA

CITY           SKY/WX    TMP DP  RH WIND       PRES   REMARKS
OMAHA EPPLEY   PTCLDY    78  65  63 S3        30.12F
BLAIR          CLEAR     71  62  73 S7        30.14S
FREMONT        CLEAR     77  60  54 SW5       30.13F
MILLARD        CLEAR     72  65  80 CALM      30.13F
OFFUTT AFB     CLEAR     69  65  86 CALM      30.13S
PLATTSMOUTH    CLEAR     73  63  70 S9        30.15S
WAHOO          FAIR      71  64  78 SW5       30.14S
$$


USA.gov is the U.S. government's official web portal to all federal, state and local government web resources and services.